Weather History for St. Joseph, MO

Change the Weather History Date:

Tuesday, November 12, 2013

  Actual Average Record
Temperature  
Mean Temperature 25 °F 44 °F  
Max Temperature 35 °F 55 °F 78 °F (2005)
Min Temperature 14 °F 33 °F 5 °F (1911)
Degree Days  
Heating Degree Days 40 21  
Month to date heating degree days 248 225  
Since 1 July heating degree days 653 644  
Cooling Degree Days 0 0  
Month to date cooling degree days 0 0  
Year to date cooling degree days 1285 1220  
Moisture  
Dew Point 11 °F    
Average Humidity 58    
Maximum Humidity 84    
Minimum Humidity 32    
Precipitation  
Precipitation 0.00 in 0.04 in 1.46 in (1997)
Month to date precipitation 0.68 0.79  
Year to date precipitation 29.57 33.32  
Sea Level Pressure  
Sea Level Pressure 30.82 in    
Wind  
Wind Speed 6 mph (NNW)    
Max Wind Speed 22 mph    
Max Gust Speed 28 mph    
Visibility 10 miles    
Events      
T = Trace of Precipitation, MM = Missing Value Source: NWS Daily Summary

Daily Weather History Graph

Daily Weather History Graph

Search for Another Location

Airport:

Trip Planner

Search our weather history database for the weather conditions in past years. The results will help you decide how hot, cold, wet, or windy it might be!

Date:

Astronomy

Nov. 12, 2013 Rise Set
Actual Time 7:01 AM CST 5:06 PM CST
Civil Twilight 6:32 AM CST 5:34 PM CST
Nautical Twilight 5:59 AM CST 6:07 PM CST
Astronomical Twilight 5:28 AM CST 6:39 PM CST
Moon 2:20 PM CST (11/12) 1:52 AM CST (11/12)
Length of Visible Light 11h 02m
Length of Day
10h 04m
Waxing Gibbous, 76% of the Moon is Illuminated
Nov 12
Waxing Gibbous
Nov 17
Full
Nov 25
Last Quarter
Dec 2
New
Dec 9
First Quarter

Hourly Weather History & Observations

Time (CST) Temp. Windchill Dew Point Humidity Pressure Visibility Wind Dir Wind Speed Gust Speed Precip Events Conditions
12:53 AM 21.9 °F 7.8 °F 12.9 °F 68% 30.77 in 10.0 mi North 17.3 mph 21.9 mph N/A   Clear
1:53 AM 19.9 °F 8.6 °F 12.0 °F 71% 30.78 in 10.0 mi North 10.4 mph - N/A   Clear
2:53 AM 19.0 °F 8.2 °F 12.0 °F 74% 30.82 in 10.0 mi North 9.2 mph - N/A   Clear
3:53 AM 18.0 °F 7.7 °F 10.9 °F 74% 30.84 in 10.0 mi North 8.1 mph - N/A   Clear
4:53 AM 17.1 °F 5.8 °F 10.0 °F 74% 30.85 in 10.0 mi North 9.2 mph - N/A   Clear
5:53 AM 16.0 °F 5.3 °F 10.0 °F 77% 30.87 in 10.0 mi NNW 8.1 mph - N/A   Clear
6:53 AM 15.1 °F 5.2 °F 9.0 °F 77% 30.90 in 10.0 mi NNW 6.9 mph - N/A   Clear
7:53 AM 17.1 °F 3.6 °F 10.0 °F 74% 30.92 in 10.0 mi North 12.7 mph - N/A   Clear
8:53 AM 19.9 °F 10.1 °F 10.9 °F 68% 30.94 in 10.0 mi North 8.1 mph - N/A   Clear
9:53 AM 23.0 °F 15.8 °F 12.0 °F 63% 30.94 in 10.0 mi Variable 5.8 mph - N/A   Clear
10:53 AM 25.0 °F 17.1 °F 10.9 °F 55% 30.92 in 10.0 mi NW 6.9 mph - N/A   Clear
11:53 AM 28.9 °F 22.8 °F 10.0 °F 45% 30.89 in 10.0 mi NNE 5.8 mph - N/A   Clear
12:53 PM 30.0 °F 26.5 °F 9.0 °F 41% 30.86 in 10.0 mi Variable 3.5 mph - N/A   Clear
1:53 PM 33.1 °F 27.7 °F 8.1 °F 35% 30.82 in 10.0 mi West 5.8 mph - N/A   Clear
2:53 PM 34.0 °F - 8.1 °F 34% 30.81 in 10.0 mi Calm Calm - N/A   Clear
3:53 PM 35.1 °F - 8.1 °F 33% 30.79 in 10.0 mi Calm Calm - N/A   Clear
4:53 PM 30.9 °F 27.5 °F 7.0 °F 37% 30.78 in 10.0 mi North 3.5 mph - N/A   Clear
5:53 PM 27.0 °F - 6.1 °F 41% 30.76 in 10.0 mi Calm Calm - N/A   Clear
6:53 PM 21.9 °F 17.2 °F 14.0 °F 72% 30.76 in 10.0 mi SSW 3.5 mph - N/A   Clear
7:53 PM 19.9 °F - 12.9 °F 74% 30.75 in 10.0 mi Calm Calm - N/A   Clear
8:53 PM 19.9 °F - 12.9 °F 74% 30.76 in 5.0 mi Calm Calm - N/A   Haze
9:53 PM 19.0 °F 13.9 °F 14.0 °F 81% 30.75 in 4.0 mi SSW 3.5 mph - N/A   Haze
10:53 PM 19.9 °F 14.9 °F 15.1 °F 81% 30.73 in 10.0 mi South 3.5 mph - N/A   Clear
11:53 PM 19.9 °F - 12.9 °F 74% 30.72 in 10.0 mi Calm Calm - N/A   Clear